GW4807 Weather Reports


time (UTC)temp
F
wind
direction
speed
knots
gust
knots
rain 1hr
in
rain 24hr
in
rain mn
in
humidity
%
barometer
mb
20260510174754 70 97 1.7 1.7 0.00 0.00 0.00 49 1012.9
20260510174251 69 60 2.6 2.6 0.00 0.00 0.00 51 1012.8
20260510173748 69 70 2.6 4.3 0.00 0.00 0.00 51 1012.9
20260510173243 69 107 2.6 2.6 0.00 0.00 0.00 50 1012.7
20260510172739 69 99 2.6 4.3 0.00 0.00 0.00 48 1012.9
20260510172235 70 59 2.6 4.3 0.00 0.00 0.00 47 1013.0
20260510171732 69 91 2.6 4.3 0.00 0.00 0.00 57 1012.8
20260510171229 70 91 2.6 5.2 0.00 0.00 0.00 55 1012.9
20260510170727 69 69 1.7 2.6 0.00 0.00 0.00 57 1012.9
20260510170222 69 112 0.0 0.9 0.00 0.00 0.00 60 1012.9
20260510165718 69 68 1.7 1.7 0.00 0.00 0.00 55 1012.8
20260510165214 68 100 0.9 0.9 0.00 0.00 0.00 56 1012.8
20260510164712 68 78 0.9 0.9 0.00 0.00 0.00 55 1012.8
20260510164209 68 74 4.3 6.1 0.00 0.00 0.00 53 1012.7
20260510163704 68 78 1.7 1.7 0.00 0.00 0.00 54 1012.6
20260510163200 68 346 2.6 4.3 0.00 0.00 0.00 54 1012.8
20260510162700 68 83 0.9 0.9 0.00 0.00 0.00 53 1012.7
20260510162157 68 37 1.7 2.6 0.00 0.00 0.00 56 1012.6
20260510161652 67 73 1.7 1.7 0.00 0.00 0.00 56 1012.3
20260510161149 66 85 0.9 1.7 0.00 0.00 0.00 56 1012.4
20260510160646 67 82 1.7 1.7 0.00 0.00 0.00 57 1012.3
20260510160142 67 54 1.7 1.7 0.00 0.00 0.00 59 1012.2
20260510155638 67 107 0.0 0.9 0.00 0.00 0.00 59 1012.3
20260510155134 67 84 2.6 2.6 0.00 0.00 0.00 59 1012.3
20260510154630 66 81 2.6 2.6 0.00 0.00 0.00 62 1012.3
20260510154125 67 91 3.5 5.2 0.00 0.00 0.00 61 1012.4
20260510153621 67 109 0.0 0.9 0.00 0.00 0.00 65 1012.4
20260510153117 66 105 0.9 0.9 0.00 0.00 0.00 66 1012.5
20260510152614 66 112 0.9 0.9 0.00 0.00 0.00 66 1012.4
20260510152110 66 101 1.7 1.7 0.00 0.00 0.00 65 1012.7
20260510151607 66 121 1.7 6.1 0.00 0.00 0.00 64 1012.7
20260510151105 66 98 0.9 1.7 0.00 0.00 0.00 66 1012.7
20260510150600 65 86 0.9 0.9 0.00 0.00 0.00 66 1012.5
20260510150055 65 96 1.7 2.6 0.00 0.00 0.00 64 1012.8
20260510145553 65 92 3.5 4.3 0.00 0.00 0.00 65 1012.5
20260510145049 65 67 1.7 5.2 0.00 0.00 0.00 66 1012.2
20260510144546 65 122 3.5 5.2 0.00 0.00 0.00 65 1012.2
20260510144042 65 87 1.7 1.7 0.00 0.00 0.00 66 1012.1
20260510143537 66 103 0.9 1.7 0.00 0.00 0.00 66 1012.1
20260510143034 65 118 0.0 0.0 0.00 0.00 0.00 68 1012.1
20260510142530 64 101 0.9 1.7 0.00 0.00 0.00 69 1012.4
20260510142027 64 66 2.6 4.3 0.00 0.00 0.00 68 1012.1
20260510141524 64 71 1.7 2.6 0.00 0.00 0.00 68 1012.2
20260510141021 64 104 0.0 0.9 0.00 0.00 0.00 70 1012.0
20260510140517 64 45 0.0 0.9 0.00 0.00 0.00 71 1012.2
20260510140017 64 101 0.9 1.7 0.00 0.00 0.00 74 1012.0
20260510135513 63 113 0.9 0.9 0.00 0.00 0.00 76 1012.0
20260510135009 64 77 0.9 1.7 0.00 0.00 0.00 75 1011.7
20260510134507 63 104 0.9 1.7 0.00 0.00 0.00 76 1011.7
20260510134003 63 96 0.0 0.9 0.00 0.00 0.00 77 1011.2
20260510133459 63 52 2.6 4.3 0.00 0.00 0.00 78 1011.2
20260510132955 63 80 0.9 1.7 0.00 0.00 0.00 80 1011.5
20260510132453 62 108 0.0 0.9 0.00 0.00 0.00 83 1011.1
20260510131949 62 99 2.6 5.2 0.00 0.00 0.00 81 1011.2
20260510131447 62 82 1.7 1.7 0.00 0.00 0.00 82 1011.0
20260510130944 62 37 0.9 1.7 0.00 0.00 0.00 83 1010.7
20260510130440 61 81 0.9 1.7 0.00 0.00 0.00 83 1010.9
20260510125938 60 127 0.9 0.9 0.00 0.00 0.00 90 1010.8
20260510125434 59 104 0.0 0.0 0.00 0.00 0.00 90 1010.8
20260510124930 58 80 1.7 1.7 0.00 0.00 0.00 91 1010.5
20260510124427 57 86 1.7 1.7 0.00 0.00 0.00 95 1010.7
20260510123924 57 92 0.9 0.9 0.00 0.00 0.00 99 1010.6
20260510123419 55 113 0.0 0.0 0.00 0.00 0.00 99 1010.8
20260510122916 54 106 0.0 0.0 0.00 0.00 0.00 99 1010.7
20260510122410 53 96 0.0 0.9 0.00 0.00 0.00 99 1010.6
20260510121907 53 117 0.0 0.0 0.00 0.00 0.00 99 1010.4
20260510121405 52 115 0.0 0.0 0.00 0.00 0.00 99 1010.5
20260510120902 52 113 0.0 0.0 0.00 0.00 0.00 99 1010.3
20260510120359 51 114 0.0 0.0 0.00 0.00 0.00 99 1010.3
20260510115854 51 118 0.0 0.0 0.00 0.00 0.00 99 1010.2
20260510115352 51 117 0.0 0.0 0.00 0.00 0.00 99 1010.4
20260510114847 51 117 0.0 0.0 0.00 0.00 0.00 99 1010.3
20260510114345 51 118 0.0 0.0 0.00 0.00 0.00 99 1010.2
20260510113845 50 119 0.0 0.0 0.00 0.00 0.00 99 1010.1
20260510113341 50 118 0.0 0.0 0.00 0.00 0.00 99 1009.8
20260510112838 50 118 0.0 0.0 0.00 0.00 0.00 99 1009.6
20260510112336 50 118 0.0 0.0 0.00 0.00 0.00 99 1009.6
20260510111831 50 123 0.0 0.0 0.00 0.00 0.00 99 1009.2
20260510111328 50 122 0.0 0.0 0.00 0.00 0.00 99 1009.4
20260510110822 50 118 0.0 0.0 0.00 0.00 0.00 99 1009.4
20260510110320 50 118 0.0 0.0 0.00 0.00 0.00 99 1009.4
20260510105815 50 117 0.0 0.0 0.00 0.00 0.00 99 1009.5
20260510105310 50 121 0.0 0.0 0.00 0.00 0.00 99 1009.3
20260510104807 50 118 0.0 0.0 0.00 0.00 0.00 99 1009.3
20260510104305 51 118 0.0 0.0 0.00 0.00 0.00 99 1009.5
20260510103801 51 117 0.0 0.0 0.00 0.00 0.00 99 1009.3
20260510103257 51 116 0.0 0.0 0.00 0.00 0.00 99 1009.2
20260510102752 51 124 0.0 0.0 0.00 0.00 0.00 99 1009.0
20260510102248 51 123 0.0 0.0 0.00 0.00 0.00 99 1008.9
20260510101746 51 116 0.0 0.0 0.00 0.00 0.00 99 1008.6
20260510101244 51 123 0.0 0.0 0.00 0.00 0.00 99 1008.7
20260510100740 51 123 0.0 0.0 0.00 0.00 0.00 99 1008.5
20260510100238 51 123 0.0 0.0 0.00 0.00 0.00 99 1008.2
20260510095733 51 113 0.0 0.0 0.00 0.00 0.00 99 1008.2
20260510095229 51 116 0.0 0.0 0.00 0.00 0.00 99 1008.4
20260510094727 51 116 0.0 0.0 0.00 0.00 0.00 99 1008.5
20260510094223 51 119 0.0 0.0 0.00 0.00 0.00 99 1008.5
20260510093719 51 116 0.0 0.0 0.00 0.00 0.00 99 1008.6
20260510093217 51 122 0.0 0.0 0.00 0.00 0.00 99 1008.4
20260510092713 51 116 0.0 0.0 0.00 0.00 0.00 99 1008.2
20260510092209 51 123 0.0 0.0 0.00 0.00 0.00 99 1008.1
20260510091704 52 116 0.0 0.0 0.00 0.00 0.00 99 1008.4
20260510091201 52 114 0.0 0.0 0.00 0.00 0.00 99 1007.9
20260510090658 52 126 0.0 0.0 0.00 0.00 0.00 99 1008.0
20260510090154 52 141 0.9 0.9 0.00 0.00 0.00 99 1007.8
20260510085649 51 113 0.0 0.0 0.00 0.00 0.00 99 1007.7
20260510085145 51 139 0.9 0.9 0.00 0.00 0.00 99 1007.7
20260510084641 51 116 0.0 0.0 0.00 0.00 0.00 99 1007.8
20260510084138 51 116 0.0 0.0 0.00 0.00 0.00 99 1007.6
20260510083635 51 117 0.0 0.0 0.00 0.00 0.00 99 1007.6
20260510083132 51 117 0.0 0.0 0.00 0.00 0.00 99 1007.6
20260510082628 51 119 0.0 0.0 0.00 0.00 0.00 99 1007.9
20260510082123 51 121 0.0 0.0 0.00 0.00 0.00 99 1007.9
20260510081623 52 117 0.0 0.0 0.00 0.00 0.00 99 1007.7
20260510081120 52 117 0.0 0.0 0.00 0.00 0.00 99 1007.9
20260510080619 52 114 0.0 0.0 0.00 0.00 0.00 99 1008.0
20260510080116 52 124 0.0 0.0 0.00 0.00 0.00 99 1007.9
20260510075614 52 122 0.0 0.0 0.00 0.00 0.00 99 1007.9
20260510075111 52 113 0.0 0.0 0.00 0.00 0.00 99 1007.6
20260510074607 52 121 0.0 0.0 0.00 0.00 0.00 99 1007.7
20260510074103 52 111 0.0 0.0 0.00 0.00 0.00 99 1007.5
20260510073559 52 117 0.0 0.0 0.00 0.00 0.00 99 1007.7
20260510073056 52 127 0.0 0.0 0.00 0.00 0.00 99 1007.6
20260510072553 52 124 0.9 0.9 0.00 0.00 0.00 99 1007.6
20260510072048 52 141 0.9 0.9 0.00 0.00 0.00 99 1007.7
20260510071544 52 111 0.0 0.0 0.00 0.00 0.00 99 1007.6
20260510071043 52 130 0.0 0.0 0.00 0.00 0.00 99 1007.5
20260510070539 52 122 0.0 0.0 0.00 0.00 0.00 99 1007.4
20260510070036 52 117 0.0 0.0 0.00 0.00 0.00 99 1007.3
20260510065533 52 128 0.0 0.0 0.00 0.00 0.00 99 1007.7
20260510065029 52 106 0.0 0.9 0.00 0.00 0.00 99 1007.8
20260510064525 52 124 0.0 0.0 0.00 0.00 0.00 99 1007.5
20260510064022 52 113 0.0 0.0 0.00 0.00 0.00 99 1007.6
20260510063519 52 113 0.0 0.0 0.00 0.00 0.00 99 1007.6
20260510063016 52 123 0.0 0.0 0.00 0.00 0.00 99 1007.7
20260510062512 52 132 0.0 0.0 0.00 0.00 0.00 99 1007.7
20260510062007 52 128 0.9 0.9 0.00 0.00 0.00 99 1007.9
20260510061504 52 101 0.9 0.9 0.00 0.00 0.00 99 1007.7
20260510061000 52 134 0.0 0.9 0.00 0.00 0.00 98 1007.9
20260510060452 52 133 0.9 0.9 0.00 0.00 0.00 98 1007.8
20260510055948 52 168 0.9 0.9 0.00 0.00 0.00 98 1007.8
20260510055444 52 108 0.0 0.0 0.00 0.00 0.00 99 1007.6
20260510054942 52 96 0.0 0.0 0.00 0.00 0.00 98 1007.7
20260510054437 52 118 0.0 0.0 0.00 0.00 0.00 97 1007.2
20260510053932 52 118 0.0 0.0 0.00 0.00 0.00 97 1006.9
20260510053428 52 123 0.0 0.0 0.00 0.00 0.00 97 1006.9
20260510052925 52 123 0.0 0.0 0.00 0.00 0.00 97 1006.9
20260510052420 52 122 0.0 0.0 0.00 0.00 0.00 96 1006.9
20260510051917 52 119 0.0 0.0 0.00 0.00 0.00 96 1006.9
20260510051414 53 118 0.0 0.0 0.00 0.00 0.00 96 1006.9
20260510050910 53 124 0.0 0.0 0.00 0.00 0.00 96 1006.9
20260510050407 53 129 0.0 0.0 0.00 0.00 0.00 96 1007.0
20260510045904 53 123 0.0 0.0 0.00 0.01 0.01 95 1006.9
20260510045401 53 117 0.0 0.0 0.00 0.01 0.01 95 1007.0
20260510044858 53 117 0.0 0.0 0.00 0.01 0.01 95 1007.1
20260510044355 53 118 0.0 0.0 0.00 0.01 0.01 94 1006.9
20260510043851 53 117 0.0 0.0 0.00 0.01 0.01 94 1006.9
20260510043347 54 121 0.0 0.0 0.00 0.01 0.01 94 1006.6
20260510042846 54 123 0.0 0.0 0.00 0.01 0.01 94 1006.4
20260510042341 54 121 0.0 0.0 0.00 0.01 0.01 93 1006.2
20260510041837 54 118 0.0 0.0 0.00 0.01 0.01 92 1006.4
20260510041334 54 118 0.0 0.0 0.00 0.01 0.01 92 1006.3
20260510040832 54 121 0.0 0.0 0.00 0.01 0.01 92 1006.3
20260510040328 55 119 0.0 0.0 0.00 0.01 0.01 92 1006.3
20260510035824 55 118 0.0 0.0 0.00 0.01 0.01 92 1006.6
20260510035320 55 124 0.0 0.0 0.00 0.01 0.01 91 1006.7
20260510034815 55 117 0.0 0.0 0.00 0.01 0.01 89 1006.5
20260510034314 55 117 0.0 0.0 0.00 0.01 0.01 89 1006.7
20260510033810 56 119 0.0 0.0 0.00 0.01 0.01 89 1006.5
20260510033307 56 120 0.0 0.0 0.00 0.01 0.01 88 1006.5
20260510032804 56 120 0.0 0.0 0.00 0.01 0.01 88 1006.5
20260510032301 57 121 0.0 0.0 0.00 0.01 0.01 87 1006.5
20260510031756 57 121 0.0 0.0 0.00 0.01 0.01 87 1006.4
20260510031251 57 125 0.0 0.0 0.00 0.01 0.01 86 1006.3
20260510030745 57 132 0.0 0.0 0.00 0.01 0.01 86 1006.0
20260510030242 57 122 0.0 0.0 0.00 0.01 0.01 85 1006.0
20260510025739 57 120 0.0 0.0 0.00 0.01 0.01 84 1005.7
20260510025237 58 117 0.0 0.0 0.00 0.01 0.01 83 1006.1
20260510024733 58 116 0.0 0.0 0.00 0.01 0.01 84 1005.8
20260510024230 58 132 0.0 0.9 0.00 0.01 0.01 83 1005.9
20260510023725 59 134 0.0 0.9 0.00 0.01 0.01 82 1005.7
20260510023223 59 123 0.0 0.0 0.00 0.01 0.01 81 1005.6
20260510022719 59 116 0.0 0.0 0.00 0.01 0.01 80 1005.6
20260510022214 60 127 0.0 0.0 0.00 0.01 0.01 79 1005.6
20260510021709 60 122 0.0 0.0 0.00 0.01 0.01 77 1005.3
20260510021207 60 124 0.0 0.0 0.00 0.01 0.01 76 1005.1
20260510020702 61 124 0.0 0.0 0.00 0.01 0.01 75 1005.2
20260510020156 61 124 0.0 0.0 0.00 0.01 0.01 75 1005.0
20260510015653 61 129 0.0 0.0 0.00 0.01 0.01 74 1005.1
20260510015150 62 126 0.0 0.0 0.00 0.01 0.01 73 1004.8
20260510014649 62 128 0.0 0.0 0.00 0.01 0.01 73 1004.7
20260510014147 62 126 0.0 0.0 0.00 0.01 0.01 72 1004.4
20260510013642 63 124 0.0 0.0 0.00 0.01 0.01 71 1004.3
20260510013138 63 124 0.0 0.0 0.00 0.01 0.01 70 1004.3
20260510012638 64 125 0.0 0.0 0.00 0.01 0.01 70 1004.4
20260510012134 64 126 0.0 0.0 0.00 0.01 0.01 71 1004.2
20260510011634 64 132 0.0 0.0 0.00 0.01 0.01 68 1004.2
20260510011130 65 126 0.0 0.0 0.00 0.01 0.01 68 1004.2
20260510010626 65 126 0.0 0.0 0.00 0.01 0.01 69 1004.2
20260510010124 66 125 0.0 0.0 0.00 0.01 0.01 69 1004.3
20260510005619 66 126 0.0 0.0 0.00 0.01 0.01 69 1004.0
20260510005117 67 130 0.0 0.0 0.00 0.01 0.01 68 1003.9
20260510004615 68 130 0.0 0.0 0.00 0.01 0.01 67 1003.8
20260510004113 68 131 0.0 0.0 0.00 0.01 0.01 68 1003.8
20260510003609 69 138 0.0 0.0 0.00 0.01 0.01 66 1003.8
20260510003105 70 132 0.0 0.0 0.00 0.01 0.01 65 1003.9
20260510002600 71 131 0.0 0.0 0.00 0.01 0.01 62 1003.7
20260510002057 72 135 0.0 0.0 0.00 0.01 0.01 59 1003.5
20260510001555 73 135 0.0 0.0 0.00 0.01 0.01 57 1003.8
20260510001054 75 144 0.9 0.9 0.00 0.01 0.01 52 1003.7
20260510000554 75 139 0.0 0.0 0.00 0.01 0.01 53 1003.7
20260510000051 76 148 0.9 0.9 0.00 0.01 0.01 49 1003.9
20260509235547 78 153 0.9 0.9 0.00 0.01 0.01 47 1003.9
20260509235044 79 142 0.0 0.9 0.00 0.01 0.01 44 1003.6
20260509234540 81 137 0.0 0.0 0.00 0.01 0.01 40 1003.8
20260509234038 82 163 0.9 0.9 0.00 0.01 0.01 38 1003.7
20260509233535 83 153 0.0 0.9 0.00 0.01 0.01 38 1003.9
20260509233033 83 137 0.0 0.0 0.00 0.01 0.01 36 1003.7
20260509232529 84 154 0.0 0.9 0.00 0.01 0.01 34 1003.7
20260509232026 85 144 1.7 1.7 0.00 0.01 0.01 31 1003.5
20260509231522 85 123 0.0 0.0 0.00 0.01 0.01 39 1003.7
20260509231020 86 160 0.9 0.9 0.00 0.01 0.01 34 1003.7
20260509230517 86 137 0.0 0.9 0.00 0.01 0.01 36 1003.6
20260509230014 85 136 0.0 0.0 0.00 0.01 0.01 30 1003.7
20260509225509 86 156 0.9 0.9 0.00 0.01 0.01 32 1003.7
20260509225005 86 145 0.0 0.0 0.00 0.01 0.01 34 1003.5
20260509224500 87 175 1.7 1.7 0.00 0.01 0.01 30 1003.7
20260509223957 86 124 0.0 0.0 0.00 0.01 0.01 29 1003.9
20260509223454 87 166 0.0 0.9 0.00 0.01 0.01 33 1003.8
20260509222952 86 161 0.9 0.9 0.00 0.01 0.01 27 1003.8
20260509222447 86 140 0.0 0.0 0.00 0.01 0.01 36 1003.8
20260509221943 85 133 0.9 1.7 0.00 0.01 0.01 29 1003.6
20260509221440 85 187 2.6 2.6 0.00 0.01 0.01 29 1003.8
20260509220935 84 188 0.9 1.7 0.00 0.01 0.01 29 1003.5
20260509220432 86 146 0.9 0.9 0.00 0.01 0.01 33 1003.7
20260509215928 87 163 0.9 1.7 0.00 0.01 0.01 29 1003.5
20260509215424 85 134 0.9 0.9 0.00 0.01 0.01 33 1003.5
20260509214921 84 152 0.9 1.7 0.00 0.01 0.01 32 1003.5
20260509214418 84 191 4.3 5.2 0.00 0.01 0.01 30 1003.4
20260509213915 84 81 1.7 1.7 0.00 0.01 0.01 35 1003.6
20260509213410 84 177 0.0 0.9 0.00 0.01 0.01 34 1003.5
20260509212909 85 238 2.6 2.6 0.00 0.01 0.01 30 1003.6
20260509212406 84 182 1.7 1.7 0.00 0.01 0.01 32 1003.5
20260509211902 84 295 2.6 2.6 0.00 0.01 0.01 33 1003.5
20260509211358 84 134 0.0 0.0 0.00 0.01 0.01 31 1003.8
20260509210854 84 42 1.7 2.6 0.00 0.01 0.01 36 1003.7
20260509210352 85 183 3.5 5.2 0.00 0.01 0.01 33 1003.7
20260509205852 85 180 2.6 2.6 0.00 0.01 0.01 30 1004.0
20260509205346 86 275 1.7 1.7 0.00 0.01 0.01 28 1004.0
20260509204843 86 146 0.9 0.9 0.00 0.01 0.01 35 1003.9
20260509204339 86 154 0.9 0.9 0.00 0.01 0.01 38 1004.1
20260509203836 84 145 1.7 1.7 0.00 0.01 0.01 34 1004.0
20260509203333 85 225 0.9 1.7 0.00 0.01 0.01 36 1004.1
20260509202829 85 191 0.9 1.7 0.00 0.01 0.01 42 1004.1
20260509202326 85 141 0.9 1.7 0.00 0.01 0.01 32 1004.2
20260509201825 86 97 0.9 0.9 0.00 0.01 0.01 31 1004.3
20260509201322 85 110 0.0 0.0 0.00 0.01 0.01 35 1004.4
20260509200818 86 190 2.6 2.6 0.00 0.01 0.01 34 1004.4
20260509200314 85 120 0.9 0.9 0.00 0.01 0.01 37 1004.5
20260509195810 84 149 0.9 0.9 0.00 0.01 0.01 32 1004.4
20260509195306 83 222 2.6 4.3 0.00 0.01 0.01 33 1004.5
20260509194805 83 222 2.6 2.6 0.00 0.01 0.01 33 1004.2
20260509194301 83 179 1.7 1.7 0.00 0.01 0.01 41 1004.3
20260509193758 84 185 2.6 6.1 0.00 0.01 0.01 40 1004.5
20260509193258 83 205 0.9 2.6 0.00 0.01 0.01 36 1004.3
20260509192754 82 41 0.9 0.9 0.00 0.01 0.01 37 1004.4
20260509192249 83 204 2.6 2.6 0.00 0.01 0.01 33 1004.5
20260509191745 82 161 0.9 1.7 0.00 0.01 0.01 35 1004.5
20260509191242 82 240 2.6 2.6 0.00 0.01 0.01 35 1004.4
20260509190738 82 12 1.7 1.7 0.00 0.01 0.01 37 1004.5
20260509190235 82 11 1.7 2.6 0.00 0.01 0.01 39 1004.4
20260509185732 82 133 0.9 0.9 0.00 0.01 0.01 37 1004.7
20260509185228 82 156 2.6 2.6 0.00 0.01 0.01 38 1004.7
20260509184726 81 187 2.6 5.2 0.00 0.01 0.01 34 1004.3
20260509184223 82 191 2.6 2.6 0.00 0.01 0.01 39 1004.4
20260509183719 81 266 0.9 1.7 0.00 0.01 0.01 41 1004.5
20260509183215 81 257 3.5 4.3 0.00 0.01 0.01 37 1004.6
20260509182711 82 319 3.5 4.3 0.00 0.01 0.01 31 1004.6
20260509182209 82 196 2.6 2.6 0.00 0.01 0.01 36 1004.6
20260509181706 82 116 0.0 0.0 0.00 0.01 0.01 41 1005.0
20260509181203 81 203 0.9 0.9 0.00 0.01 0.01 41 1004.4
20260509180700 81 42 0.9 1.7 0.00 0.01 0.01 43 1004.7
20260509180156 81 156 1.7 1.7 0.00 0.01 0.01 35 1004.7
20260509175652 80 146 0.9 0.9 0.00 0.01 0.01 46 1004.7
20260509175149 80 219 2.6 4.3 0.00 0.01 0.01 42 1004.7